NI4CE-10 Weather Reports


time (UTC)temp
C
wind
direction
speed
KPH
gust
KPH
rain 1hr
cm
rain 24hr
cm
rain mn
cm
humidity
%
barometer
mb
20260508062531 20 298 0.0 3.2 0.00 0.00 0.00 100 1017.0
20260508062031 20 279 0.0 0.0 0.00 0.00 0.00 100 1017.1
20260508061531 20 279 0.0 0.0 0.00 0.00 0.00 100 1017.0
20260508061032 20 279 0.0 0.0 0.00 0.00 0.00 100 1017.0
20260508060532 20 279 0.0 0.0 0.00 0.00 0.00 100 1017.1
20260508060141 20 279 0.0 0.0 0.00 0.00 0.00 100 1017.2
20260508060032 20 279 0.0 0.0 0.00 0.00 0.00 100 1017.1
20260508055532 20 279 0.0 0.0 0.00 0.00 0.00 100 1017.2
20260508055032 20 279 0.0 0.0 0.00 0.00 0.00 100 1017.3
20260508054532 20 279 0.0 0.0 0.00 0.00 0.00 100 1017.3
20260508054032 20 279 0.0 0.0 0.00 0.00 0.00 100 1017.3
20260508053532 19 279 0.0 0.0 0.00 0.00 0.00 100 1017.4
20260508053440 20 279 0.0 0.0 0.00 0.00 0.00 100 1017.4
20260508053032 20 279 0.0 0.0 0.00 0.00 0.00 100 1017.4
20260508052532 20 279 0.0 0.0 0.00 0.00 0.00 100 1017.4
20260508052413 20 279 0.0 0.0 0.00 0.00 0.00 100 1017.4
20260508052032 20 279 0.0 0.0 0.00 0.00 0.00 100 1017.4
20260508052009 20 279 0.0 0.0 0.00 0.00 0.00 100 1017.4
20260508051532 20 279 0.0 0.0 0.00 0.00 0.00 100 1017.4
20260508051350 20 279 0.0 0.0 0.00 0.00 0.00 100 1017.5
20260508051032 20 279 0.0 0.0 0.00 0.00 0.00 100 1017.5
20260508050532 20 279 0.0 0.0 0.00 0.00 0.00 100 1017.5
20260508050526 21 279 0.0 0.0 0.00 0.00 0.00 100 1017.6
20260508050032 21 279 0.0 0.0 0.00 0.00 0.00 100 1017.5
20260508045532 21 279 0.0 0.0 0.00 0.00 0.00 100 1017.5
20260508045032 20 279 0.0 0.0 0.00 0.00 0.00 100 1017.5
20260508044532 21 279 0.0 0.0 0.00 0.00 0.00 100 1017.5
20260508044032 21 279 0.0 0.0 0.00 0.00 0.00 100 1017.5
20260508043532 21 279 0.0 0.0 0.00 0.00 0.00 100 1017.5
20260508043032 21 279 0.0 0.0 0.00 0.00 0.00 100 1017.6
20260508042532 21 279 0.0 0.0 0.00 0.00 0.00 100 1017.6
20260508042157 21 279 0.0 0.0 0.00 0.00 0.00 100 1017.6
20260508042032 21 279 0.0 0.0 0.00 0.00 0.00 100 1017.6
20260508041532 21 279 0.0 0.0 0.00 0.00 0.00 100 1017.6
20260508041032 21 279 0.0 0.0 0.00 0.00 0.00 100 1017.7
20260508040532 21 279 0.0 0.0 0.00 0.00 0.00 100 1017.7
20260508040032 21 279 0.0 0.0 0.00 0.00 0.00 100 1017.7
20260508035532 21 279 0.0 1.6 0.00 0.00 0.00 100 1017.8
20260508035032 21 279 1.6 4.8 0.00 0.00 0.00 100 1017.9
20260508034532 21 264 0.0 4.8 0.00 0.00 0.00 100 1017.9
20260508034032 21 310 4.8 6.4 0.00 0.00 0.00 100 1018.0
20260508033532 21 317 3.2 6.4 0.00 0.00 0.00 100 1017.9
20260508033032 21 320 0.0 0.0 0.00 0.00 0.00 100 1017.9
20260508032532 21 320 0.0 0.0 0.00 0.00 0.00 100 1017.8
20260508032032 21 320 0.0 0.0 0.00 0.00 0.00 100 1017.8
20260508031533 21 320 0.0 1.6 0.00 0.00 0.00 100 1017.8
20260508031032 21 279 0.0 3.2 0.00 0.00 0.00 100 1017.7
20260508030532 21 293 0.0 3.2 0.00 0.00 0.00 100 1017.7
20260508030032 21 282 1.6 3.2 0.00 0.00 0.00 100 1017.7
20260508025532 21 274 1.6 1.6 0.00 0.00 0.00 100 1017.7
20260508025032 21 282 1.6 3.2 0.00 0.00 0.00 100 1017.7
20260508024532 21 277 3.2 3.2 0.00 0.00 0.00 100 1017.7
20260508024032 21 254 0.0 4.8 0.00 0.00 0.00 100 1017.8
20260508023532 21 279 1.6 4.8 0.00 0.00 0.00 100 1017.7
20260508023032 21 296 1.6 3.2 0.00 0.00 0.00 100 1017.7
20260508022532 21 295 0.0 0.0 0.00 0.00 0.00 100 1017.7
20260508022032 21 295 0.0 1.6 0.00 0.00 0.00 100 1017.7
20260508021532 22 288 0.0 4.8 0.00 0.00 0.00 100 1017.8
20260508021033 22 306 0.0 3.2 0.00 0.00 0.00 100 1017.8
20260508020533 22 302 1.6 4.8 0.00 0.00 0.00 100 1017.8
20260508020033 22 312 1.6 4.8 0.00 0.00 0.00 100 1017.7
20260508015533 22 320 3.2 4.8 0.00 0.00 0.00 100 1017.7
20260508015033 22 310 1.6 6.4 0.00 0.00 0.00 100 1017.8
20260508014533 22 288 0.0 4.8 0.00 0.00 0.00 100 1017.7
20260508014033 22 295 0.0 0.0 0.00 0.00 0.00 100 1017.6
20260508013533 22 295 0.0 3.2 0.00 0.00 0.00 100 1017.6
20260508013033 22 288 1.6 4.8 0.00 0.00 0.00 100 1017.6
20260508012533 22 310 3.2 4.8 0.00 0.00 0.00 100 1017.6
20260508012256 22 296 0.0 4.8 0.00 0.00 0.00 100 1017.5
20260508012033 23 312 3.2 4.8 0.00 0.00 0.00 100 1017.5
20260508011533 22 296 0.0 4.8 0.00 0.00 0.00 100 1017.5
20260508011033 23 271 1.6 3.2 0.00 0.00 0.00 100 1017.5
20260508010812 23 303 0.0 0.0 0.00 0.00 0.00 100 1017.4
20260508010533 23 303 0.0 0.0 0.00 0.00 0.00 100 1017.4
20260508010033 23 303 0.0 0.0 0.00 0.00 0.00 100 1017.4
20260508005533 23 303 0.0 4.8 0.00 0.00 0.00 100 1017.4
20260508005254 24 274 0.0 0.0 0.00 0.00 0.00 100 1017.2
20260508005033 23 267 1.6 4.8 0.00 0.00 0.00 100 1017.4
20260508004533 23 319 1.6 3.2 0.00 0.00 0.00 100 1017.3
20260508004033 23 274 1.6 1.6 0.00 0.00 0.00 100 1017.3
20260508003533 23 274 0.0 0.0 0.00 0.00 0.00 100 1017.3
20260508003033 23 274 0.0 0.0 0.00 0.00 0.00 100 1017.2
20260508002533 24 274 0.0 0.0 0.00 0.00 0.00 100 1017.2
20260508002359 27 295 1.6 8.0 0.00 0.00 0.00 100 1017.1
20260508002033 25 274 0.0 0.0 0.00 0.00 0.00 100 1017.2
20260508001533 25 274 0.0 0.0 0.00 0.00 0.00 100 1017.2
20260508001033 26 274 0.0 0.0 0.00 0.00 0.00 100 1017.1
20260508000533 26 274 0.0 0.0 0.00 0.00 0.00 100 1017.1
20260508000033 26 274 0.0 4.8 0.00 0.00 0.00 100 1017.0
20260507235533 27 284 1.6 3.2 0.00 0.00 0.00 100 1017.0
20260507235033 27 279 1.6 8.0 0.00 0.00 0.00 100 1017.0
20260507234533 27 295 1.6 6.4 0.00 0.00 0.00 100 1017.1
20260507234033 27 295 1.6 8.0 0.00 0.00 0.00 100 1017.1
20260507233533 28 299 0.0 4.8 0.00 0.00 0.00 100 1017.1
20260507233033 28 286 0.0 11.3 0.00 0.00 0.00 100 1017.0
20260507232533 28 306 1.6 9.7 0.00 0.00 0.00 100 1017.0
20260507232033 28 295 6.4 12.9 0.00 0.00 0.00 100 1017.0
20260507231533 28 300 4.8 9.7 0.00 0.00 0.00 100 1017.0
20260507231033 29 298 1.6 11.3 0.00 0.00 0.00 100 1016.9
20260507230533 29 317 3.2 8.0 0.00 0.00 0.00 100 1016.8
20260507230033 29 282 3.2 11.3 0.00 0.00 0.00 100 1016.8
20260507225533 30 327 3.2 11.3 0.00 0.00 0.00 100 1016.8
20260507225033 30 312 9.7 16.1 0.00 0.00 0.00 100 1016.8
20260507224533 30 334 12.9 12.9 0.00 0.00 0.00 100 1016.8
20260507224033 30 267 6.4 12.9 0.00 0.00 0.00 100 1016.7
20260507223533 30 264 9.7 14.5 0.00 0.00 0.00 100 1016.7
20260507223033 30 295 4.8 16.1 0.00 0.00 0.00 100 1016.7
20260507222533 30 289 3.2 16.1 0.00 0.00 0.00 100 1016.7
20260507222033 30 284 4.8 17.7 0.00 0.00 0.00 100 1016.7
20260507221534 30 270 3.2 11.3 0.00 0.00 0.00 100 1016.8
20260507221034 30 313 6.4 11.3 0.00 0.00 0.00 100 1016.7
20260507220534 30 281 4.8 11.3 0.00 0.00 0.00 100 1016.8
20260507220034 30 268 6.4 14.5 0.00 0.00 0.00 100 1016.7
20260507215534 31 288 1.6 20.9 0.00 0.00 0.00 100 1016.7
20260507215034 30 312 3.2 16.1 0.00 0.00 0.00 100 1016.7
20260507214534 31 338 9.7 17.7 0.00 0.00 0.00 100 1016.8
20260507214034 31 310 9.7 12.9 0.00 0.00 0.00 100 1016.8
20260507213830 32 305 9.7 17.7 0.00 0.00 0.00 100 1016.8
20260507213534 31 326 12.9 17.7 0.00 0.00 0.00 100 1016.7
20260507213034 32 307 16.1 17.7 0.00 0.00 0.00 100 1016.7
20260507212534 32 305 9.7 17.7 0.00 0.00 0.00 100 1016.8
20260507212034 32 315 11.3 19.3 0.00 0.00 0.00 100 1016.8
20260507211534 32 317 9.7 14.5 0.00 0.00 0.00 100 1016.8
20260507211034 33 291 4.8 14.5 0.00 0.00 0.00 100 1016.9
20260507210534 32 261 12.9 16.1 0.00 0.00 0.00 100 1017.0
20260507210034 33 317 8.0 22.5 0.00 0.00 0.00 100 1017.0
20260507205717 32 289 8.0 19.3 0.00 0.00 0.00 100 1017.0
20260507205534 33 307 8.0 19.3 0.00 0.00 0.00 100 1017.0
20260507205034 33 262 4.8 24.1 0.00 0.00 0.00 100 1017.0
20260507204534 33 270 9.7 19.3 0.00 0.00 0.00 100 1017.0
20260507204034 32 286 8.0 22.5 0.00 0.00 0.00 100 1017.0
20260507203534 32 289 8.0 19.3 0.00 0.00 0.00 100 1017.0
20260507203307 32 327 4.8 20.9 0.00 0.00 0.00 100 1017.0
20260507203034 33 312 4.8 17.7 0.00 0.00 0.00 100 1017.0
20260507202534 32 327 4.8 20.9 0.00 0.00 0.00 100 1017.0
20260507202320 32 268 8.0 24.1 0.00 0.00 0.00 100 1017.0
20260507202034 32 268 8.0 24.1 0.00 0.00 0.00 100 1017.0
20260507201534 33 237 8.0 19.3 0.00 0.00 0.00 100 1017.0
20260507201034 33 296 3.2 17.7 0.00 0.00 0.00 100 1017.0
20260507200550 33 324 17.7 20.9 0.00 0.00 0.00 100 1017.1
20260507200534 33 284 11.3 17.7 0.00 0.00 0.00 100 1017.0
20260507200034 33 324 17.7 20.9 0.00 0.00 0.00 100 1017.1
20260507195534 33 265 6.4 17.7 0.00 0.00 0.00 100 1017.0
20260507195034 33 337 3.2 19.3 0.00 0.00 0.00 100 1017.1
20260507194534 33 358 6.4 14.5 0.00 0.00 0.00 100 1017.1
20260507194217 32 262 19.3 22.5 0.00 0.00 0.00 100 1017.3
20260507194034 34 275 3.2 14.5 0.00 0.00 0.00 100 1017.3
20260507193534 33 272 3.2 17.7 0.00 0.00 0.00 100 1017.3
20260507193034 32 255 16.1 20.9 0.00 0.00 0.00 100 1017.3
20260507192534 32 262 19.3 22.5 0.00 0.00 0.00 100 1017.3
20260507192516 33 279 8.0 20.9 0.00 0.00 0.00 100 1017.6
20260507192034 33 230 8.0 17.7 0.00 0.00 0.00 100 1017.3
20260507191534 33 251 9.7 22.5 0.00 0.00 0.00 100 1017.4
20260507191034 33 264 8.0 19.3 0.00 0.00 0.00 100 1017.5
20260507190534 33 279 8.0 20.9 0.00 0.00 0.00 100 1017.6
20260507190513 33 285 9.7 20.9 0.00 0.00 0.00 100 1018.3
20260507190034 33 232 12.9 17.7 0.00 0.00 0.00 100 1017.6
20260507185534 33 255 8.0 19.3 0.00 0.00 0.00 100 1017.8
20260507185034 32 217 8.0 20.9 0.00 0.00 0.00 100 1017.9
20260507184534 32 282 8.0 19.3 0.00 0.00 0.00 100 1018.0
20260507184034 33 270 9.7 17.7 0.00 0.00 0.00 100 1018.0
20260507183534 33 271 9.7 20.9 0.00 0.00 0.00 100 1018.2
20260507183034 33 246 6.4 16.1 0.00 0.00 0.00 100 1018.1
20260507182534 33 260 14.5 22.5 0.00 0.00 0.00 100 1018.2
20260507182034 33 206 19.3 19.3 0.00 0.00 0.00 100 1018.2
20260507181535 33 285 9.7 20.9 0.00 0.00 0.00 100 1018.3
20260507181035 33 253 9.7 17.7 0.00 0.00 0.00 100 1018.3
20260507180535 32 278 12.9 22.5 0.00 0.00 0.00 100 1018.4
20260507180035 32 213 9.7 19.3 0.00 0.00 0.00 100 1018.6
20260507175835 32 323 1.6 22.5 0.00 0.00 0.00 100 1018.7
20260507175535 32 323 1.6 22.5 0.00 0.00 0.00 100 1018.7
20260507175035 33 319 1.6 19.3 0.00 0.00 0.00 100 1018.7
20260507174535 33 274 14.5 20.9 0.00 0.00 0.00 100 1018.7
20260507174035 33 236 6.4 22.5 0.00 0.00 0.00 100 1018.7
20260507173535 32 296 8.0 19.3 0.00 0.00 0.00 100 1018.8
20260507173323 32 267 6.4 22.5 0.00 0.00 0.00 100 1018.8
20260507173035 32 208 9.7 20.9 0.00 0.00 0.00 100 1018.8
20260507172535 33 248 8.0 24.1 0.00 0.00 0.00 100 1018.8
20260507172035 32 220 14.5 19.3 0.00 0.00 0.00 100 1018.8
20260507171535 32 267 6.4 22.5 0.00 0.00 0.00 100 1018.8
20260507171035 32 237 14.5 29.0 0.00 0.00 0.00 100 1018.8
20260507170535 31 158 4.8 20.9 0.00 0.00 0.00 100 1018.7
20260507170035 33 177 9.7 20.9 0.00 0.00 0.00 100 1018.9
20260507165535 32 255 11.3 22.5 0.00 0.00 0.00 100 1018.9
20260507165145 33 277 3.2 19.3 0.00 0.00 0.00 100 1018.9
20260507165035 32 300 4.8 20.9 0.00 0.00 0.00 100 1018.9
20260507164535 33 277 3.2 19.3 0.00 0.00 0.00 100 1018.9
20260507164035 32 262 16.1 22.5 0.00 0.00 0.00 100 1019.1
20260507163535 31 244 6.4 19.3 0.00 0.00 0.00 100 1019.0
20260507163035 32 226 16.1 24.1 0.00 0.00 0.00 100 1019.0
20260507162535 32 260 11.3 20.9 0.00 0.00 0.00 100 1019.1
20260507162035 33 236 6.4 17.7 0.00 0.00 0.00 100 1019.1
20260507161535 32 257 14.5 22.5 0.00 0.00 0.00 100 1019.1
20260507161035 32 246 12.9 20.9 0.00 0.00 0.00 100 1019.1
20260507160535 32 230 3.2 17.7 0.00 0.00 0.00 100 1019.2
20260507160035 31 230 12.9 24.1 0.00 0.00 0.00 100 1019.3
20260507155727 32 247 11.3 24.1 0.00 0.00 0.00 100 1019.3
20260507155535 32 247 11.3 24.1 0.00 0.00 0.00 100 1019.3
20260507155035 32 239 20.9 25.7 0.00 0.00 0.00 100 1019.3
20260507154535 31 241 6.4 17.7 0.00 0.00 0.00 100 1019.3
20260507154035 32 250 17.7 20.9 0.00 0.00 0.00 100 1019.3
20260507153535 31 230 14.5 20.9 0.00 0.00 0.00 100 1019.4
20260507153035 31 265 16.1 19.3 0.00 0.00 0.00 100 1019.3
20260507152535 31 277 11.3 20.9 0.00 0.00 0.00 100 1019.2
20260507152035 31 217 14.5 17.7 0.00 0.00 0.00 100 1019.3
20260507151535 30 210 12.9 19.3 0.00 0.00 0.00 100 1019.3
20260507151501 30 281 4.8 17.7 0.00 0.00 0.00 100 1019.3
20260507151035 30 225 14.5 20.9 0.00 0.00 0.00 100 1019.3
20260507150535 30 230 14.5 19.3 0.00 0.00 0.00 100 1019.3
20260507150035 30 216 11.3 17.7 0.00 0.00 0.00 100 1019.3
20260507145535 30 220 16.1 24.1 0.00 0.00 0.00 100 1019.3
20260507145035 30 243 12.9 27.4 0.00 0.00 0.00 100 1019.2
20260507144535 30 281 4.8 17.7 0.00 0.00 0.00 100 1019.3
20260507144035 29 236 8.0 17.7 0.00 0.00 0.00 100 1019.3
20260507143535 28 199 11.3 20.9 0.00 0.00 0.00 100 1019.2
20260507143035 29 237 14.5 17.7 0.00 0.00 0.00 100 1019.3
20260507142535 28 278 4.8 17.7 0.00 0.00 0.00 100 1019.3
20260507142036 29 223 9.7 17.7 0.00 0.00 0.00 100 1019.2
20260507141536 28 206 12.9 20.9 0.00 0.00 0.00 100 1019.2
20260507141255 28 196 16.1 17.7 0.00 0.00 0.00 100 1019.2
20260507141036 28 210 9.7 17.7 0.00 0.00 0.00 100 1019.2
20260507140536 28 196 16.1 17.7 0.00 0.00 0.00 100 1019.2
20260507140521 28 250 8.0 16.1 0.00 0.00 0.00 100 1019.1
20260507140036 28 234 12.9 16.1 0.00 0.00 0.00 100 1019.3
20260507135536 28 237 6.4 17.7 0.00 0.00 0.00 100 1019.3
20260507135036 28 243 4.8 19.3 0.00 0.00 0.00 100 1019.2
20260507134536 28 250 8.0 16.1 0.00 0.00 0.00 100 1019.1
20260507134036 27 226 6.4 12.9 0.00 0.00 0.00 100 1019.1
20260507133536 27 213 12.9 14.5 0.00 0.00 0.00 100 1019.1
20260507133036 27 203 4.8 12.9 0.00 0.00 0.00 100 1019.0
20260507132536 26 178 4.8 14.5 0.00 0.00 0.00 100 1019.0
20260507132036 26 177 11.3 12.9 0.00 0.00 0.00 100 1018.9
20260507131649 26 175 6.4 17.7 0.00 0.00 0.00 100 1018.9
20260507131536 26 175 6.4 17.7 0.00 0.00 0.00 100 1018.9
20260507131036 26 206 11.3 14.5 0.00 0.00 0.00 100 1018.8
20260507130536 26 219 12.9 12.9 0.00 0.00 0.00 100 1018.8
20260507130206 26 188 1.6 8.0 0.00 0.00 0.00 100 1018.9
20260507130036 26 188 1.6 8.0 0.00 0.00 0.00 100 1018.9
20260507125536 25 243 1.6 6.4 0.00 0.00 0.00 100 1018.8
20260507125036 25 158 3.2 6.4 0.00 0.00 0.00 100 1018.8
20260507124536 25 229 6.4 8.0 0.00 0.00 0.00 100 1018.9
20260507124036 25 232 6.4 6.4 0.00 0.00 0.00 100 1018.8
20260507123536 25 232 3.2 6.4 0.00 0.00 0.00 100 1018.8
20260507123036 24 215 4.8 4.8 0.00 0.00 0.00 100 1018.8
20260507122536 23 215 1.6 4.8 0.00 0.00 0.00 100 1018.8
20260507122036 23 172 0.0 3.2 0.00 0.00 0.00 100 1018.7
20260507121536 22 187 1.6 6.4 0.00 0.00 0.00 100 1018.7
20260507121036 22 201 0.0 0.0 0.00 0.00 0.00 100 1018.6
20260507120536 21 201 0.0 0.0 0.00 0.00 0.00 100 1018.6
20260507120036 21 201 0.0 0.0 0.00 0.00 0.00 100 1018.6
20260507115536 21 201 0.0 1.6 0.00 0.00 0.00 100 1018.5
20260507115036 20 42 0.0 0.0 0.00 0.00 0.00 100 1018.5
20260507114619 20 42 0.0 0.0 0.00 0.00 0.00 100 1018.5
20260507114536 20 42 0.0 0.0 0.00 0.00 0.00 100 1018.5
20260507114036 19 42 0.0 0.0 0.00 0.00 0.00 100 1018.4
20260507113536 18 42 0.0 0.0 0.00 0.00 0.00 100 1018.4
20260507113036 18 42 0.0 0.0 0.00 0.00 0.00 100 1018.5
20260507112536 17 42 0.0 0.0 0.00 0.00 0.00 100 1018.5
20260507112036 17 42 0.0 0.0 0.00 0.00 0.00 100 1018.4
20260507111536 17 42 0.0 0.0 0.00 0.00 0.00 100 1018.4
20260507111036 16 42 0.0 0.0 0.00 0.00 0.00 100 1018.4
20260507110536 16 42 0.0 0.0 0.00 0.00 0.00 100 1018.4
20260507110036 16 42 0.0 0.0 0.00 0.00 0.00 100 1018.3
20260507105536 16 42 0.0 0.0 0.00 0.00 0.00 100 1018.3
20260507105036 16 42 0.0 0.0 0.00 0.00 0.00 100 1018.2
20260507104536 16 42 0.0 0.0 0.00 0.00 0.00 100 1018.2
20260507104118 16 42 0.0 0.0 0.00 0.00 0.00 100 1018.1
20260507104036 16 42 0.0 0.0 0.00 0.00 0.00 100 1018.1
20260507103536 16 42 0.0 0.0 0.00 0.00 0.00 100 1018.1
20260507103116 16 42 0.0 0.0 0.00 0.00 0.00 100 1017.8
20260507103036 16 42 0.0 0.0 0.00 0.00 0.00 100 1018.0
20260507102536 16 42 0.0 0.0 0.00 0.00 0.00 100 1017.8
20260507102037 16 42 0.0 0.0 0.00 0.00 0.00 100 1018.0
20260507101537 16 42 0.0 0.0 0.00 0.00 0.00 100 1017.8
20260507101037 16 42 0.0 0.0 0.00 0.00 0.00 100 1017.8
20260507100537 17 42 0.0 0.0 0.00 0.00 0.00 100 1017.6
20260507100104 16 42 0.0 0.0 0.00 0.00 0.00 100 1017.7
20260507100037 17 42 0.0 0.0 0.00 0.00 0.00 100 1017.7
20260507095537 17 42 0.0 0.0 0.00 0.00 0.00 100 1017.7
20260507095037 17 42 0.0 0.0 0.00 0.00 0.00 100 1017.6
20260507094537 16 42 0.0 0.0 0.00 0.00 0.00 100 1017.7
20260507094037 17 42 0.0 0.0 0.00 0.00 0.00 100 1017.8
20260507093537 17 42 0.0 0.0 0.00 0.00 0.00 100 1017.7
20260507093321 17 42 0.0 0.0 0.00 0.00 0.00 100 1017.7
20260507093240 17 42 0.0 0.0 0.00 0.00 0.00 100 1017.7
20260507093037 17 42 0.0 0.0 0.00 0.00 0.00 100 1017.7
20260507092537 17 42 0.0 0.0 0.00 0.00 0.00 100 1017.6
20260507092037 17 42 0.0 0.0 0.00 0.00 0.00 100 1017.7
20260507091613 17 42 0.0 0.0 0.00 0.00 0.00 100 1017.6
20260507091537 17 42 0.0 0.0 0.00 0.00 0.00 100 1017.6
20260507091136 17 42 0.0 0.0 0.00 0.00 0.00 100 1017.6
20260507091037 17 42 0.0 0.0 0.00 0.00 0.00 100 1017.6
20260507090537 17 42 0.0 0.0 0.00 0.00 0.00 100 1017.5
20260507090037 17 42 0.0 0.0 0.00 0.00 0.00 100 1017.5
20260507085537 17 42 0.0 0.0 0.00 0.00 0.00 100 1017.4
20260507085037 18 42 0.0 0.0 0.00 0.00 0.00 100 1017.3
20260507084537 18 42 0.0 0.0 0.00 0.00 0.00 100 1017.2
20260507084329 18 42 0.0 0.0 0.00 0.00 0.00 100 1017.2
20260507084154 18 42 0.0 0.0 0.00 0.00 0.00 100 1017.1
20260507084037 18 42 0.0 0.0 0.00 0.00 0.00 100 1017.1
20260507083537 18 42 0.0 0.0 0.00 0.00 0.00 100 1017.1
20260507083037 17 42 0.0 0.0 0.00 0.00 0.00 100 1017.1
20260507082537 18 42 0.0 0.0 0.00 0.00 0.00 100 1017.0
20260507082132 18 42 0.0 0.0 0.00 0.00 0.00 100 1017.0
20260507082037 18 42 0.0 0.0 0.00 0.00 0.00 100 1017.0
20260507081537 18 42 0.0 0.0 0.00 0.00 0.00 100 1017.1
20260507081037 18 42 0.0 0.0 0.00 0.00 0.00 100 1017.3
20260507080537 18 42 0.0 0.0 0.00 0.00 0.00 100 1017.2
20260507080455 19 42 0.0 0.0 0.00 0.00 0.00 100 1017.2
20260507080037 19 42 0.0 0.0 0.00 0.00 0.00 100 1017.2
20260507075537 18 42 0.0 0.0 0.00 0.00 0.00 100 1017.2
20260507075037 18 42 0.0 0.0 0.00 0.00 0.00 100 1017.1
20260507074537 18 42 0.0 0.0 0.00 0.00 0.00 100 1017.0
20260507074037 18 42 0.0 0.0 0.00 0.00 0.00 100 1017.0
20260507073537 18 42 0.0 0.0 0.00 0.00 0.00 100 1017.0
20260507073037 18 42 0.0 0.0 0.00 0.00 0.00 100 1016.9
20260507072615 18 42 0.0 0.0 0.00 0.00 0.00 100 1017.0
20260507072537 18 42 0.0 0.0 0.00 0.00 0.00 100 1017.0
20260507072037 18 42 0.0 1.6 0.00 0.00 0.00 100 1017.0
20260507071537 18 46 0.0 0.0 0.00 0.00 0.00 100 1017.0
20260507071037 18 46 0.0 0.0 0.00 0.00 0.00 100 1017.1
20260507070623 18 46 0.0 0.0 0.00 0.00 0.00 100 1017.2
20260507070537 18 46 0.0 0.0 0.00 0.00 0.00 100 1017.2
20260507070037 18 46 0.0 0.0 0.00 0.00 0.00 100 1017.3
20260507065537 18 46 0.0 0.0 0.00 0.00 0.00 100 1017.4
20260507065037 18 46 0.0 0.0 0.00 0.00 0.00 100 1017.4
20260507064537 18 46 0.0 0.0 0.00 0.00 0.00 100 1017.6
20260507064037 18 46 0.0 0.0 0.00 0.00 0.00 100 1017.6
20260507063826 18 46 0.0 0.0 0.00 0.00 0.00 100 1018.1
20260507063537 18 46 0.0 0.0 0.00 0.00 0.00 100 1017.8
20260507063038 18 46 0.0 0.0 0.00 0.00 0.00 100 1018.1